Regional Weather Roundup
Issued by NWS

Home | Current Version | Previous Version | Graphics & Text | Print | Product List | Glossary On
Versions: 1 2 3 4 5 6 7 8 9 10 11 12 13 14 15 16 17 18 19 20 21 22 23 24 25 26 27 28 29 30 31 32 33 34 35 36 37 38 39 40 41 42 43 44 45 46 47 48 49 50
000
ASUS43 KOAX 211102
RWRNE

WEATHER ROUNDUP FOR NEBRASKA
NATIONAL WEATHER SERVICE OMAHA NE
600 AM CDT MON APR 21 2014

NOTES: SATELLITE DATA IS BEING USED TO AUGMENT CLOUD COVER ABOVE
       12000 FEET.
       "FAIR" INDICATES FEW OR NO CLOUDS BELOW 12,000 FEET WITH NO
       SIGNIFICANT WEATHER AND/OR OBSTRUCTIONS TO VISIBILITY.

  * THESE STATIONS DO NOT REPORT WEATHER SUCH AS RAIN...SNOW OR FOG.

NEZ001>004-019>022-054>056-211200-
NEBRASKA PANHANDLE

CITY           SKY/WX    TMP DP  RH WIND       PRES   REMARKS
SCOTTSBLUFF    CLEAR     44  25  47 W5        30.24S
ALLIANCE       MOCLDY    39  28  64 NW7       30.21R WCI  34
CHADRON        CLEAR     34  30  85 W9        30.23R WCI  27
KIMBALL        PTCLDY    39  27  61 NW6       30.23S
SIDNEY         CLEAR     43  27  53 N12       30.21R
$$

NEZ057>060-069>072-079>082-211200-
SOUTHWEST NEBRASKA

CITY           SKY/WX    TMP DP  RH WIND       PRES   REMARKS
NORTH PLATTE   CLEAR     51  29  42 N17G26    30.09R
IMPERIAL       CLEAR     46  32  58 NW10      30.14R
LEXINGTON      CLEAR     50  39  65 N9        30.06R
MCCOOK         CLEAR     52  36  54 N16       30.06R
OGALLALA       CLEAR     51  25  36 NE8       30.16R
$$

NEZ005>010-023>029-035>040-094-211200-
NORTH CENTRAL NEBRASKA

CITY           SKY/WX    TMP DP  RH WIND       PRES   REMARKS
VALENTINE      CLEAR     43  27  53 W7        30.15R
AINSWORTH      CLEAR     46  31  56 NW6       30.13R
BROKEN BOW     CLEAR     49  35  58 N21       30.06R
O`NEILL        PTCLDY    52  30  43 N16       30.06R
ORD            MOCLDY    49  38  65 NW10      30.03R
THEDFORD       CLEAR     49  28  42 N9        30.14R
$$

NEZ041-046>049-061>064-073>077-083>087-211200-
SOUTH CENTRAL NEBRASKA

CITY           SKY/WX    TMP DP  RH WIND       PRES   REMARKS
GRAND ISLAND   CLOUDY    58  53  84 N9        30.01R
AURORA         CLOUDY    56  54  94 NW7       29.99R
HASTINGS       CLOUDY    59  50  72 N20G25    29.99R
HEBRON         LGT RAIN  59  54  84 W10       29.97R
HOLDREGE       MOCLDY    52  50  93 NW12G17   30.02R
KEARNEY *      CLOUDY    55  50  82 NW13      30.02R
YORK           CLOUDY    57  55  94 W3        29.99F
$$

NEZ011>018-030>034-042>045-211200-
NORTHEAST NEBRASKA

CITY           SKY/WX    TMP DP  RH WIND       PRES   REMARKS
NORFOLK        CLOUDY    59  46  62 NW12      29.97R
ALBION         CLOUDY    57  40  52 N13       30.00R
BLAIR          CLOUDY    60  55  85 SW8       29.93R
COLUMBUS *     CLOUDY    59  48  67 W8        29.98S
FREMONT        RAIN      58  56  92 W7        29.93F
TEKAMAH        CLOUDY    60  56  86 SE7       29.93R
$$

NEZ050>053-065>068-078-088>093-211200-
SOUTHEAST NEBRASKA

CITY           SKY/WX    TMP DP  RH WIND       PRES   REMARKS
LINCOLN        CLOUDY    60  56  86 W3        29.95R
OMAHA EPPLEY   CLOUDY    60  57  89 SE7       29.91F FOG
BEATRICE       CLOUDY    58  55  91 S3        29.95S
FALLS CITY     PTCLDY    58  55  90 CALM      29.95R
NEBRASKA CITY  MOCLDY    59  58  97 SW7       29.94F
PLATTSMOUTH    CLOUDY    58  56  92 CALM      29.93S FOG
$$

NEZ044-045-051>053-067-211200-
OMAHA AREA

CITY           SKY/WX    TMP DP  RH WIND       PRES   REMARKS
OMAHA EPPLEY   CLOUDY    60  57  89 SE7       29.91F FOG
BLAIR          CLOUDY    60  55  85 SW8       29.93R
FREMONT        RAIN      58  56  92 W7        29.93F
MILLARD        CLOUDY    60  56  86 SW3       29.93R
OFFUTT AFB     CLOUDY    58  58 100 CALM      29.92F
PLATTSMOUTH    CLOUDY    58  56  92 CALM      29.93S FOG
WAHOO          CLOUDY    58  53  84 NW3       29.95R
$$



USA.gov is the U.S. government's official web portal to all federal, state and local government web resources and services.